Theta_e
317 316 316 309 303 303 305 308 306 303 303 304 305 304 304 307 307 308 307 307 307 307 308 307 308 308 308 308 308 307 306 309 309 307 309 309 310 309 308 307 306 307 308 309 309 309 309 309 308 308 311 311 311 311 309 307 318 338 336 326 321 316 315 311 310 312 311 312 309 306 306 307 308 307 305 305 307 307 307 307 306 305 305 305 305 305 306 305
316 315 313 309 304 302 303 305 303 303 304 305 305 304 304 306 308 308 307 308 307 307 308 308 308 308 308 309 308 308 307 309 309 307 308 309 310 309 307 306 306 307 307 308 307 308 309 309 307 307 313 313 308 311 309 307 317 333 333 327 325 321 312 306 308 308 307 310 308 305 306 308 309 307 305 307 310 308 307 309 307 306 306 305 304 305 305 305
315 314 313 308 304 302 302 302 303 303 304 305 304 304 304 306 308 308 307 308 308 308 308 308 308 307 309 308 308 308 306 311 313 308 308 309 309 308 307 307 306 306 306 307 307 306 308 308 306 307 314 313 308 312 313 310 311 318 326 330 328 320 309 305 307 307 307 308 307 305 306 308 308 307 306 307 309 308 307 309 309 308 308 308 306 303 304 305
316 316 314 307 304 304 302 302 303 304 305 305 304 304 304 307 308 308 308 308 308 308 309 309 307 307 308 307 308 307 307 318 318 308 309 310 308 308 306 306 306 306 307 306 307 308 308 307 307 310 313 312 314 315 311 310 309 311 319 324 318 311 308 307 306 307 306 306 307 307 306 307 307 306 307 306 307 309 308 307 308 310 310 310 308 303 303 304
318 317 312 305 303 305 305 304 304 304 305 305 304 304 305 307 308 308 308 308 308 308 311 311 308 308 308 307 309 309 310 317 315 307 309 309 307 308 307 306 306 306 307 308 310 311 309 307 309 314 314 312 318 316 307 307 308 310 310 310 309 307 307 306 306 308 305 305 309 308 306 306 306 305 307 307 307 309 311 309 307 310 309 309 309 304 303 303
317 313 307 303 301 305 309 305 304 304 305 304 304 304 306 307 307 308 308 308 308 308 311 312 311 311 311 311 310 311 314 312 309 308 309 309 307 307 307 306 307 306 307 310 311 312 314 313 312 317 317 313 314 312 307 305 307 311 308 305 307 306 307 307 307 309 308 308 309 308 307 306 306 307 308 307 306 307 310 309 308 307 304 305 307 305 307 307
311 304 302 302 301 305 309 305 304 305 304 304 304 305 306 307 308 308 309 309 308 308 310 311 312 311 311 314 309 313 320 311 307 309 309 309 307 307 307 307 309 307 308 310 310 317 321 316 312 317 319 312 309 309 309 307 309 315 310 306 307 305 307 307 307 310 310 309 308 307 305 306 308 307 307 307 306 307 306 304 302 302 302 302 305 306 306 306
304 301 301 302 301 304 305 304 304 304 304 304 304 306 307 308 308 309 309 309 309 309 309 310 311 309 309 311 314 320 320 310 307 310 309 310 308 307 307 308 310 307 309 310 311 319 320 314 312 314 316 311 309 311 308 308 311 314 310 306 306 305 306 306 308 311 310 308 306 306 306 308 309 306 307 308 307 307 305 302 301 301 303 303 307 308 303 301
301 301 301 302 302 303 303 303 303 303 304 304 305 307 307 308 309 309 309 309 309 309 309 310 309 310 307 309 320 324 313 307 309 309 309 310 308 308 308 309 310 309 310 310 311 315 315 315 315 312 311 309 309 310 308 309 310 309 308 306 306 306 306 306 307 310 309 309 307 306 308 310 309 306 308 310 308 307 306 304 304 305 306 307 308 307 301 299
301 301 301 302 302 302 303 303 303 304 304 305 305 306 308 309 310 309 309 309 309 308 309 310 308 310 308 311 323 319 307 309 310 309 310 310 309 308 308 309 310 310 310 310 311 313 314 314 311 311 313 311 310 309 307 309 307 307 307 307 307 306 306 306 306 308 308 308 308 306 309 311 309 308 310 312 309 306 307 306 306 307 308 308 309 306 301 299
301 301 302 302 302 303 303 303 303 304 304 305 306 308 309 310 310 310 310 311 311 310 310 310 310 311 310 314 323 314 307 311 309 309 310 309 309 309 308 309 309 309 309 311 311 312 314 311 309 311 311 310 311 309 305 306 306 306 307 307 306 305 305 306 305 307 305 306 309 307 307 310 308 308 312 312 309 307 309 309 307 308 309 308 310 309 302 299
302 302 302 302 303 303 303 303 304 305 305 306 308 309 310 310 310 310 311 312 312 312 311 311 311 310 311 313 316 312 309 311 309 309 309 308 309 310 310 310 309 309 308 310 312 311 311 311 314 315 311 309 309 308 306 306 306 305 307 308 306 308 308 305 306 306 305 306 308 307 308 310 309 310 314 313 309 307 309 311 310 308 308 308 310 310 304 300
302 303 303 303 304 303 303 304 305 306 307 308 309 309 310 310 310 310 311 311 311 311 311 313 312 311 316 316 311 310 311 311 309 309 309 309 309 309 310 311 310 311 309 310 312 310 310 312 312 313 314 316 309 306 307 305 306 306 307 310 310 315 313 305 307 307 305 308 308 307 311 317 316 315 315 312 308 307 308 310 310 308 308 308 309 310 308 302
304 304 304 305 304 303 305 306 307 307 308 308 309 309 310 310 310 310 310 310 311 313 312 316 315 311 316 315 310 311 312 311 310 310 310 308 309 309 309 311 311 311 310 312 311 310 310 308 309 312 311 315 309 304 310 308 307 309 308 315 316 313 314 309 308 309 306 309 308 305 312 321 320 317 316 311 308 307 309 311 309 309 308 309 310 309 310 304
304 304 305 305 304 304 306 307 308 308 308 309 309 310 309 310 310 310 310 310 311 311 312 317 317 315 319 315 310 313 312 311 311 310 310 309 309 309 309 311 311 311 312 313 314 312 310 307 313 315 309 314 315 311 318 316 316 318 311 321 323 312 318 317 309 309 308 308 309 307 313 321 317 315 313 308 307 307 309 311 310 310 309 309 310 309 310 307
303 304 304 304 304 306 308 308 308 308 307 308 309 310 309 310 310 310 310 310 312 313 314 317 316 318 323 316 311 313 311 310 312 310 310 310 309 309 310 309 310 312 313 313 317 314 311 313 313 312 313 321 326 328 331 326 327 327 316 319 323 314 319 318 309 309 310 308 309 308 312 318 314 313 312 308 308 308 308 311 309 309 309 309 310 309 311 311
303 303 304 305 306 307 308 308 308 308 307 308 310 311 311 311 311 310 310 311 314 314 314 316 314 316 318 313 311 314 311 310 312 310 310 310 310 310 309 310 313 313 315 314 316 315 314 319 313 311 319 320 324 334 329 323 326 326 322 322 321 318 317 316 313 310 308 308 310 309 310 314 313 312 312 310 308 308 309 311 310 308 308 309 311 312 313 314
304 305 306 307 307 307 308 308 308 308 308 308 309 311 312 311 311 311 311 312 313 314 316 316 314 318 316 312 312 311 310 310 311 310 309 310 310 311 311 314 313 314 322 320 314 317 318 321 319 320 327 321 325 333 320 322 329 325 327 324 321 324 321 318 317 310 307 309 311 310 310 312 311 308 309 309 307 308 309 310 309 308 309 311 312 314 315 315
306 307 307 307 307 307 308 308 308 308 309 308 308 311 310 309 313 313 311 313 316 321 324 319 316 319 317 313 310 310 310 310 312 310 308 311 311 312 313 315 318 319 326 325 319 323 323 327 331 327 327 320 318 321 315 319 324 322 324 322 320 326 325 320 315 310 307 310 314 314 314 314 312 309 308 309 308 308 308 307 308 309 313 316 317 319 320 320
306 307 307 307 307 307 308 308 309 309 309 308 308 309 310 317 322 317 314 315 317 318 320 319 317 317 314 312 310 311 313 312 314 310 308 311 312 316 316 316 330 331 323 323 323 320 321 330 332 324 323 318 314 314 312 313 315 317 319 321 323 324 327 323 313 309 307 312 320 316 314 314 311 311 309 308 308 308 309 309 308 309 313 319 322 322 322 323
307 307 308 308 307 308 308 308 309 309 309 309 308 308 313 324 324 316 316 315 312 311 314 314 314 313 310 310 310 311 316 318 314 310 308 311 313 318 318 320 336 333 320 322 323 319 324 328 321 318 320 316 312 313 312 311 314 318 319 323 325 322 327 322 310 311 309 311 321 316 313 315 312 312 310 307 308 310 312 312 312 311 312 317 322 323 323 321
306 307 307 307 306 306 306 307 309 309 310 309 308 310 314 319 317 312 316 316 311 310 314 313 314 316 312 310 310 310 318 322 314 311 309 311 318 319 322 330 336 327 322 324 325 326 328 321 313 313 315 311 312 314 313 313 317 322 321 321 322 320 322 319 311 314 311 310 323 319 313 315 314 315 313 308 310 313 314 312 314 315 314 316 319 321 324 321
305 306 306 305 305 304 305 308 309 309 309 308 309 312 312 313 313 312 315 318 313 309 314 316 318 321 317 311 309 311 318 316 313 315 310 312 321 322 327 338 335 329 329 329 330 329 321 315 313 311 310 310 313 315 313 315 319 320 320 319 321 317 316 319 317 315 312 310 318 317 314 320 324 322 316 310 310 313 314 313 315 317 317 318 317 316 319 322
305 305 305 305 305 306 308 308 309 310 309 310 313 313 311 312 313 313 318 321 315 311 311 312 315 319 316 310 309 314 317 312 312 312 308 313 321 319 324 329 331 330 323 322 329 328 315 310 310 311 312 312 313 317 318 320 320 319 320 320 319 315 312 316 316 313 315 312 311 316 321 326 331 332 324 318 316 314 314 315 314 315 318 317 316 315 316 319
305 305 305 305 304 307 309 309 310 310 310 311 312 312 311 312 310 310 320 324 316 315 314 312 314 313 310 309 310 314 315 312 311 309 307 313 317 317 317 318 326 327 315 314 322 320 311 306 308 313 316 315 315 318 318 318 322 323 319 314 311 312 311 314 315 316 326 321 311 314 318 323 334 331 324 325 324 319 316 316 316 318 322 319 317 319 318 317
305 305 305 305 305 306 309 312 311 311 312 310 310 312 310 311 309 308 324 332 319 317 317 313 314 313 310 311 313 313 315 313 310 309 309 310 312 314 315 315 319 322 316 314 315 313 309 307 310 314 316 318 319 317 311 312 324 322 314 309 309 310 311 314 316 316 325 321 312 313 311 319 336 328 322 328 326 325 326 325 326 325 326 324 320 320 320 318
305 306 305 305 305 304 309 313 313 312 314 310 310 311 307 307 308 308 323 329 316 315 318 315 313 313 312 312 313 314 314 314 311 310 310 310 311 313 319 320 315 315 313 312 313 312 311 311 313 314 317 319 319 318 311 310 320 317 311 309 310 311 311 313 314 316 320 316 318 325 315 312 331 330 326 326 320 324 331 328 331 329 327 328 324 322 322 323
305 305 305 306 305 304 307 311 312 311 312 311 310 309 307 306 305 311 321 316 309 314 318 317 312 311 314 313 314 316 314 315 313 310 309 309 312 316 323 322 315 315 311 314 317 313 310 314 314 314 318 318 315 313 310 309 314 314 308 308 309 309 311 312 314 319 319 314 320 335 319 311 335 341 329 321 316 320 321 319 322 324 325 329 328 326 324 324
304 305 305 305 305 305 306 308 311 309 308 310 309 308 307 303 306 320 327 313 309 314 314 314 312 313 319 318 318 320 316 314 313 311 311 311 310 315 321 317 316 317 311 317 324 312 308 311 310 310 313 313 312 309 308 310 312 310 306 308 310 310 312 312 313 317 321 319 318 326 316 311 335 347 328 315 316 320 317 316 320 320 323 327 328 329 328 326
304 305 304 305 305 305 305 306 308 309 308 308 309 308 305 308 323 329 320 311 310 311 313 316 315 315 321 320 318 319 316 317 318 316 315 314 312 315 315 312 320 323 316 318 320 311 309 308 307 309 310 309 308 306 306 307 308 308 309 313 315 315 314 312 314 317 321 325 321 318 314 311 324 338 330 318 319 323 320 317 318 319 318 318 321 326 328 326
304 304 304 306 306 306 307 306 306 307 308 307 307 308 308 318 337 331 310 309 312 311 314 318 318 322 324 320 315 318 320 321 320 319 319 318 320 323 318 315 323 327 327 326 317 312 314 311 309 309 308 306 307 308 306 305 307 309 314 316 316 321 320 318 325 323 319 325 322 316 314 312 316 326 326 323 322 323 322 318 317 317 314 314 317 319 321 322
303 304 304 305 305 306 308 307 306 306 307 306 307 318 325 320 324 321 309 309 312 314 316 316 317 321 321 317 315 319 320 316 317 319 318 320 323 320 317 318 320 320 323 324 318 318 319 315 311 309 307 306 309 313 311 310 310 311 318 323 323 330 329 325 333 327 321 325 317 312 313 313 320 325 320 322 321 318 320 320 319 318 316 316 316 315 318 322
303 304 303 304 305 305 306 306 305 305 305 306 311 327 340 326 314 313 314 312 309 312 315 316 317 317 317 317 316 317 315 311 316 317 313 317 323 316 310 312 313 314 317 317 319 323 318 314 314 313 311 306 307 315 317 316 315 314 319 324 327 329 324 325 332 322 316 322 315 310 313 318 325 323 318 321 320 317 318 318 321 322 320 318 315 317 321 322
304 305 303 303 304 303 305 303 303 304 304 309 319 324 323 320 314 311 314 315 310 311 315 317 318 315 315 318 317 314 316 313 314 319 317 317 325 325 318 313 309 315 323 318 317 322 317 314 316 315 312 308 306 310 310 311 314 315 313 317 325 325 319 321 327 321 316 323 322 312 314 326 325 314 315 318 315 314 314 315 318 319 318 318 315 317 321 319
306 305 304 305 303 303 304 302 304 306 305 319 336 326 316 320 317 315 320 316 311 314 314 314 319 318 317 320 317 311 314 315 313 317 320 318 320 325 322 316 310 313 322 318 314 317 317 314 313 309 307 306 309 308 305 310 316 314 310 316 321 320 323 322 316 317 319 321 327 320 319 332 323 312 318 318 313 312 311 313 314 313 315 318 316 316 319 319
308 307 306 305 303 305 305 305 307 305 312 335 341 325 325 327 315 316 321 313 312 317 313 313 319 319 320 321 319 314 311 312 313 314 317 316 315 316 316 315 311 310 315 318 316 314 315 316 311 309 308 305 306 306 304 310 313 312 312 315 312 310 320 323 312 314 316 318 328 323 321 331 322 315 322 318 312 313 311 312 313 313 318 318 316 317 319 319
308 308 306 304 304 306 304 307 307 305 321 342 332 319 325 320 308 315 318 310 311 316 316 318 316 314 321 322 321 321 314 310 313 314 316 314 312 314 316 313 308 309 310 312 315 311 311 315 312 310 312 306 303 305 306 306 308 313 314 311 309 309 314 319 320 325 323 323 331 324 320 330 326 322 323 317 312 314 313 313 314 316 319 317 316 318 319 318
306 308 308 304 304 304 305 307 307 313 331 334 320 317 317 310 306 310 314 310 313 317 319 322 315 312 322 323 320 320 315 313 318 318 318 315 311 314 317 313 307 308 307 306 311 310 309 315 315 309 312 310 304 306 309 308 304 310 313 307 310 315 316 319 322 327 323 320 328 330 325 323 326 330 325 315 315 317 314 314 316 317 317 317 317 317 318 318
305 314 316 306 303 306 306 306 308 321 332 324 320 321 312 309 309 307 309 311 313 317 319 321 315 311 317 320 321 320 314 314 318 317 316 314 312 310 310 311 308 306 306 305 309 310 309 312 315 311 308 309 308 309 315 316 306 307 310 307 309 316 319 320 317 318 324 322 324 332 331 325 330 338 330 318 319 318 314 316 318 319 319 321 321 320 320 320
308 320 319 305 304 308 307 309 320 334 328 314 320 322 309 309 310 305 306 309 312 315 317 322 318 313 317 317 316 318 315 317 318 316 315 313 312 311 308 309 309 306 305 305 307 310 310 309 314 316 308 309 312 310 317 323 313 311 316 313 313 313 311 314 313 314 323 327 325 326 331 338 339 334 327 322 321 316 315 319 320 320 322 323 324 324 323 322
309 320 315 305 305 306 310 318 325 329 326 313 313 314 308 308 309 307 305 305 309 310 311 319 319 316 320 317 314 315 315 319 319 317 317 313 312 313 308 304 307 305 306 308 308 310 312 312 317 321 315 316 318 307 306 312 309 311 317 316 319 317 315 320 318 314 315 321 326 323 323 336 335 323 320 319 316 314 315 318 320 320 322 322 323 324 323 322
316 316 308 306 306 305 317 326 316 315 326 316 308 308 307 306 307 308 305 303 307 309 308 314 317 317 321 317 315 316 315 318 319 316 316 314 314 315 307 301 303 304 306 311 309 306 311 317 318 321 319 315 311 303 301 303 301 304 307 309 314 316 321 329 323 318 315 311 316 317 317 328 328 319 320 318 312 312 314 319 321 320 321 321 320 320 321 320
326 317 306 307 307 307 316 318 313 319 322 307 301 303 303 304 306 306 305 305 307 309 311 314 312 313 314 312 313 315 314 316 319 317 316 317 314 309 304 301 303 304 305 309 309 305 308 315 315 322 328 317 308 303 301 298 299 305 307 306 310 311 318 328 324 320 319 314 316 317 318 330 328 319 321 320 314 313 315 320 322 320 323 324 324 325 324 320
325 315 309 308 306 307 313 315 319 326 316 303 303 305 302 302 304 304 306 309 308 309 316 317 311 309 310 309 311 312 310 313 315 314 314 317 311 302 301 303 303 305 307 309 310 306 307 315 317 321 331 328 320 314 310 305 304 311 313 309 309 310 313 319 316 314 317 320 322 321 325 334 327 319 320 317 315 315 314 316 318 319 323 326 330 332 327 322
317 311 314 312 306 307 311 318 329 332 319 309 308 308 306 304 304 304 306 308 307 308 315 314 309 308 308 306 308 308 306 308 311 311 311 314 310 301 301 303 303 306 309 307 307 307 308 313 317 320 321 319 321 322 318 316 314 313 313 310 309 310 312 315 316 315 319 321 318 320 329 332 322 318 317 313 314 316 316 316 314 316 319 321 326 328 325 322
311 311 318 316 312 314 312 310 319 327 322 316 311 308 310 310 306 303 303 306 306 305 308 308 307 309 309 307 311 313 308 305 306 309 312 315 312 304 301 302 303 306 307 305 304 307 311 312 314 323 325 318 325 328 317 312 315 314 314 314 312 311 312 317 320 319 321 320 316 318 323 322 317 315 314 314 317 320 321 319 314 314 316 318 322 325 324 322
308 313 315 309 310 316 313 309 315 320 316 315 310 307 310 311 308 304 301 302 304 303 305 306 306 309 311 311 315 317 311 307 306 307 312 315 310 303 300 301 302 303 305 305 303 306 313 314 312 317 319 318 324 326 315 310 314 316 315 316 316 313 311 314 317 318 319 318 317 318 318 316 314 313 313 316 319 318 318 316 312 312 313 314 317 320 320 317
306 310 307 303 305 312 309 309 316 318 313 311 310 308 312 315 312 311 306 301 301 303 304 308 309 312 316 316 315 315 311 310 311 310 311 311 308 305 303 301 301 302 304 303 302 308 315 315 312 311 314 318 317 317 314 312 313 315 314 314 315 314 313 312 312 314 316 315 314 318 319 317 313 312 312 314 314 313 311 310 309 310 311 312 315 316 316 315
305 306 302 300 307 312 308 307 312 316 315 314 312 309 314 319 316 314 308 302 305 304 304 311 315 313 316 315 314 318 317 312 313 313 311 311 309 308 309 308 303 300 300 302 302 305 311 316 313 308 310 317 315 312 311 310 311 312 311 311 311 313 313 311 311 311 312 314 313 314 316 314 310 309 308 309 311 310 309 309 311 312 315 315 316 317 318 315
309 310 307 305 308 309 308 309 312 314 311 309 309 309 313 320 317 312 306 306 311 308 303 311 317 313 313 313 314 320 321 315 311 312 312 313 311 309 313 316 310 301 299 302 303 300 304 314 314 307 310 318 314 309 308 308 310 310 310 310 309 310 310 308 308 309 309 311 311 310 312 311 308 309 311 311 311 310 310 314 317 319 320 318 319 321 319 314
305 303 306 313 312 306 308 311 311 314 313 310 309 308 311 318 317 313 308 307 311 311 309 314 319 313 310 310 313 319 319 315 311 310 312 314 313 311 311 311 312 308 303 302 303 302 303 309 309 305 312 319 311 306 309 310 309 310 312 311 308 308 309 308 307 308 308 309 309 308 310 309 308 310 312 312 313 314 317 322 322 321 322 320 319 320 317 311
302 300 304 315 312 305 308 311 306 308 315 317 313 309 310 315 314 311 309 308 307 308 309 312 317 314 313 315 315 313 312 310 309 307 307 308 309 310 308 306 309 311 307 303 304 305 305 310 312 308 312 318 309 305 312 312 310 313 315 313 310 309 308 307 307 307 307 308 309 310 310 310 310 311 310 311 315 316 317 318 315 312 315 318 317 313 309 305
Wind_Speed
5 3 4 2 4 6 4 4 6 10 9 7 8 9 10 8 8 8 9 7 3 5 7 8 9 10 11 11 10 4 1 2 13 24 19 12 17 17 15 11 8 7 4 5 6 5 4 6 9 10 6 4 4 2 3 3 3 4 3 3 1 4 4 4 5 5 4 3 6 5 6 7 3 4 1 2 2 3 4 5 5 5 7 9 6 4 6 14
6 5 5 4 6 7 5 5 7 9 8 6 7 9 10 8 7 8 8 6 4 6 7 8 10 11 12 11 8 2 3 1 10 19 16 16 18 13 10 8 6 5 4 4 6 6 4 4 8 10 5 3 3 3 2 3 4 4 3 3 3 5 4 3 4 4 3 4 7 5 5 5 5 5 2 1 5 4 4 7 5 6 9 11 9 6 10 16
5 5 3 3 7 9 8 6 8 9 7 6 7 10 11 8 7 8 7 7 7 7 8 11 13 12 11 8 3 3 5 2 7 10 15 18 15 10 7 5 3 4 4 3 5 5 4 2 5 5 5 3 2 3 3 4 3 2 4 2 5 5 3 2 3 3 4 5 8 4 3 4 4 3 2 3 5 5 6 6 3 6 9 10 9 8 12 15
4 4 4 3 6 8 8 8 8 7 6 7 9 11 10 8 7 8 5 5 7 10 10 11 12 12 8 4 3 6 5 4 4 8 16 19 13 10 5 2 2 3 3 4 4 5 4 3 3 3 4 3 3 4 4 3 1 2 4 3 6 3 3 2 3 2 3 5 8 4 3 2 3 2 2 3 2 7 7 8 7 8 9 9 8 8 13 13
3 3 4 7 8 5 6 8 9 8 7 8 11 12 9 7 7 8 6 4 6 9 10 11 11 12 11 9 5 5 4 4 4 10 18 18 13 8 3 0 1 1 3 4 4 5 5 3 5 5 4 2 4 4 2 3 3 3 1 2 4 3 3 2 2 2 0 5 5 5 4 3 1 1 3 6 5 6 6 7 9 9 8 8 5 6 10 9
5 6 8 12 10 5 5 8 9 8 9 10 12 11 9 7 7 8 6 4 6 7 7 9 11 11 11 10 5 2 4 2 6 13 17 17 14 7 2 1 0 1 2 3 4 5 5 4 5 4 3 3 3 3 1 5 3 3 1 2 1 3 3 1 1 3 2 6 4 5 3 1 2 4 4 7 10 10 6 5 8 8 9 9 4 6 7 7
8 12 12 12 9 4 5 8 8 8 10 11 10 10 8 7 8 9 7 5 5 3 2 4 5 6 7 7 7 6 5 1 8 14 15 16 14 6 1 1 2 1 0 3 5 4 4 5 4 4 5 4 2 2 1 4 5 5 1 1 2 2 3 2 1 2 4 6 4 3 0 1 2 4 2 5 13 11 9 7 6 5 6 8 5 6 7 8
12 14 12 9 7 3 6 8 8 9 10 9 9 8 7 7 9 8 7 7 6 6 4 3 5 2 5 5 3 6 4 3 10 13 14 14 13 8 2 2 3 0 3 5 4 3 3 5 4 3 4 2 3 3 2 3 5 5 3 2 1 2 1 0 2 3 2 2 1 2 0 5 6 2 4 10 13 9 9 8 6 4 3 6 5 6 6 7
12 11 10 7 6 5 6 7 8 9 8 7 8 7 6 7 7 7 7 8 8 8 6 6 8 7 4 5 4 4 3 5 9 11 12 12 13 10 4 2 2 1 5 6 5 4 3 2 4 4 4 2 4 3 2 2 1 2 4 3 2 1 1 1 2 2 1 1 0 1 4 6 4 2 5 12 12 8 7 6 4 3 5 6 5 6 6 6
10 9 8 7 6 6 6 7 7 7 7 7 7 6 5 5 6 6 7 8 7 5 4 4 5 7 6 4 6 4 3 5 7 9 10 11 13 13 10 7 3 3 5 6 8 6 4 3 4 5 7 3 4 2 2 1 2 3 6 5 4 2 2 1 1 4 3 2 2 2 6 6 3 3 4 9 7 3 4 5 4 5 7 7 5 6 7 8
9 8 7 6 5 6 6 6 6 6 6 6 5 4 3 4 6 6 6 6 7 7 6 4 5 2 1 3 6 3 2 6 7 9 10 9 13 16 16 12 6 6 6 8 10 7 5 5 5 4 3 2 3 4 3 2 4 5 7 5 4 3 3 1 1 4 2 2 4 5 5 5 3 2 7 9 5 2 5 5 4 6 7 6 5 6 6 9
7 7 6 5 5 5 5 5 5 5 4 3 2 2 1 3 5 5 5 7 9 9 8 7 6 5 7 8 5 1 2 7 8 9 9 8 11 15 15 14 12 9 6 8 8 7 4 4 6 5 1 4 4 3 2 2 5 4 4 4 3 6 3 2 2 2 1 1 4 3 4 4 1 6 11 8 4 2 4 4 4 5 6 5 6 6 5 10
6 6 6 5 4 4 3 3 3 1 1 1 2 2 1 3 4 3 2 3 4 5 4 4 2 1 4 5 1 1 3 7 9 7 7 7 8 11 12 12 13 13 11 11 9 8 5 5 9 8 2 6 3 1 3 3 5 1 2 5 1 6 4 3 1 1 2 1 3 2 4 5 6 11 12 7 1 3 2 4 4 4 5 5 6 6 6 10
6 6 6 5 3 3 2 1 2 3 2 2 3 2 1 2 3 2 2 2 2 3 3 3 2 0 4 1 2 4 4 6 9 8 9 9 6 8 10 10 11 12 12 12 11 10 8 7 12 9 2 5 3 2 4 4 3 1 1 2 2 2 3 4 2 1 2 1 3 4 2 5 8 10 9 5 2 5 4 6 5 5 5 5 6 6 6 9
5 5 5 4 3 2 2 4 5 4 5 6 6 3 1 1 2 3 2 1 0 2 2 2 2 1 5 1 2 4 6 5 10 12 12 11 8 7 9 10 10 11 9 9 8 9 8 8 9 7 1 3 5 5 4 4 3 2 1 2 4 0 4 7 3 1 0 3 4 4 3 6 7 9 7 3 3 5 5 7 6 5 6 5 6 6 6 8
2 3 4 5 4 3 4 6 5 5 7 9 8 4 2 0 2 2 0 2 1 3 2 1 2 2 4 1 1 4 5 5 10 12 10 11 9 9 11 8 7 9 7 6 5 5 8 9 6 3 3 4 6 5 4 4 4 4 2 1 3 0 3 5 2 1 2 2 4 0 3 4 4 6 7 4 3 4 5 7 7 6 6 6 6 5 6 7
3 4 5 6 4 4 6 5 3 3 5 7 8 7 6 5 3 1 2 2 2 2 1 1 1 3 3 1 1 3 4 6 10 11 10 10 8 9 11 6 6 8 5 5 6 4 7 7 2 1 4 4 3 4 3 3 3 4 3 0 3 1 2 3 2 1 3 1 3 2 4 7 7 7 8 6 0 3 6 8 8 6 6 6 5 5 5 6
4 5 6 5 4 4 4 4 2 0 3 5 5 5 6 8 8 4 2 3 1 3 2 3 3 3 2 2 1 3 6 7 10 11 10 8 7 9 9 6 5 7 5 5 6 5 5 4 2 2 4 5 4 5 3 4 3 2 1 1 2 3 2 3 2 1 4 2 4 2 5 11 12 9 9 8 3 5 8 8 7 6 5 6 5 5 5 5
4 4 5 4 4 3 3 4 3 2 1 3 2 0 2 5 6 8 8 5 1 1 0 2 3 2 0 2 3 5 6 6 8 10 11 9 7 6 6 6 5 4 4 3 5 5 3 4 5 4 3 3 3 3 4 4 4 6 4 3 2 3 4 5 4 2 2 3 5 5 6 9 12 11 9 8 5 7 9 7 6 6 5 6 5 5 5 4
3 3 4 3 3 2 3 4 4 3 2 3 3 2 3 2 3 5 9 9 2 1 1 1 0 2 1 2 5 6 4 2 4 9 13 12 7 4 4 5 6 6 5 1 3 3 3 5 3 2 3 3 4 3 3 1 3 5 4 2 3 3 4 5 2 4 2 2 5 4 4 9 12 12 10 7 3 5 7 7 7 7 5 6 5 5 5 5
2 2 3 2 2 2 3 5 6 6 6 6 4 1 1 2 1 1 1 4 0 1 2 1 1 2 1 2 5 6 2 2 3 8 14 12 5 2 3 4 6 5 4 2 3 3 5 6 1 5 6 5 3 2 1 1 3 3 4 2 3 3 5 4 1 4 5 3 4 3 6 11 10 10 9 4 3 5 7 7 7 8 6 6 6 6 6 5
1 2 2 2 2 3 5 6 7 8 8 7 4 2 2 4 2 4 4 3 1 1 3 1 2 2 1 1 5 5 3 4 5 8 14 12 5 2 2 5 6 2 4 3 2 5 6 3 4 5 4 2 2 2 1 2 3 3 3 2 2 3 4 5 2 5 6 3 4 5 7 11 10 8 8 3 4 5 5 7 7 6 6 6 6 6 6 5
1 2 2 3 3 4 5 6 6 5 5 5 5 3 2 3 6 5 4 4 0 2 3 3 3 3 4 2 4 6 5 4 3 7 14 11 4 3 3 5 5 2 5 4 3 3 3 1 4 2 2 2 3 4 4 3 3 3 2 2 3 3 3 3 3 6 5 1 4 5 5 7 8 6 6 3 3 4 4 4 6 5 6 6 6 5 5 5
2 2 3 3 3 3 4 5 4 3 4 5 5 5 6 8 9 5 3 4 1 1 1 1 1 0 2 2 5 5 4 2 0 5 12 8 2 2 4 4 4 5 5 3 6 6 3 2 1 3 5 4 0 4 5 4 2 2 2 3 2 2 1 4 4 7 6 1 1 4 4 4 5 5 6 5 3 4 5 3 5 5 4 4 5 4 4 5
4 3 2 1 3 2 1 4 4 4 4 4 6 8 11 10 6 3 3 4 2 2 2 1 0 1 1 2 4 2 2 1 0 3 7 6 2 1 2 2 4 3 2 2 8 7 3 2 1 4 5 4 2 2 2 4 1 3 2 4 3 2 2 3 5 6 4 3 1 4 4 3 5 4 5 5 6 5 5 4 5 6 6 5 5 5 5 4
5 3 1 1 4 3 3 3 4 6 4 4 9 12 10 7 3 3 3 5 2 3 3 1 1 2 2 3 3 0 2 2 2 2 4 4 1 2 3 2 3 3 4 2 5 3 1 2 3 4 3 5 4 1 1 4 3 1 2 4 4 3 2 2 5 4 2 1 3 3 4 2 5 5 6 5 6 7 6 5 6 6 5 5 5 5 5 5
5 3 1 1 5 5 3 3 7 7 3 4 11 10 6 5 3 2 3 5 2 2 1 1 1 2 2 2 2 2 1 2 1 2 3 3 3 3 4 1 2 2 2 2 2 0 1 3 5 5 5 5 3 1 2 4 3 2 2 4 4 3 2 2 3 3 1 3 4 5 4 1 3 5 7 5 4 7 7 6 7 6 6 6 5 6 6 6
4 3 1 1 4 6 3 4 8 6 1 7 12 8 6 4 1 2 4 3 1 1 1 2 1 1 2 2 3 3 1 2 2 1 2 3 3 3 5 2 4 3 1 2 1 1 1 2 2 3 4 2 1 2 3 4 1 3 2 3 2 3 3 3 4 2 2 1 3 6 4 2 4 6 6 4 2 4 6 4 5 6 5 6 6 6 6 7
5 2 0 1 3 5 4 4 6 4 3 9 11 7 5 2 2 3 5 2 1 1 0 1 1 2 3 4 5 4 2 2 1 2 3 4 4 5 5 3 7 6 3 3 4 2 1 1 2 3 2 1 3 3 2 3 0 2 2 3 3 4 3 3 4 2 3 3 2 6 4 2 4 5 4 3 2 2 3 2 4 5 6 5 5 6 6 6
5 2 1 2 3 4 4 3 4 4 5 9 10 6 3 1 4 5 3 0 1 1 1 0 1 2 4 4 4 5 4 2 3 3 3 2 5 7 4 3 6 7 4 6 5 1 2 1 2 3 1 2 2 1 1 2 1 0 3 4 4 4 3 3 3 2 3 2 3 5 3 1 2 5 3 2 2 5 5 2 4 4 3 3 3 5 5 5
6 4 1 2 3 3 2 2 4 6 7 9 9 4 2 2 5 5 0 2 1 1 1 1 2 3 6 3 2 5 4 4 5 4 3 3 6 7 4 2 3 5 4 5 4 3 4 2 0 0 1 2 2 1 1 2 2 2 3 3 2 3 3 3 4 4 3 2 4 4 4 1 1 4 5 4 5 5 6 5 5 5 3 3 3 4 4 4
7 6 4 1 3 2 1 3 6 7 8 10 6 3 4 2 2 1 1 2 1 1 0 1 2 3 4 2 2 4 3 3 4 4 2 2 4 4 2 2 2 3 3 1 2 3 3 1 2 2 0 2 2 0 2 4 4 4 3 3 2 2 3 1 3 2 1 3 2 2 3 1 4 6 6 6 6 6 7 7 7 7 6 5 3 3 4 4
7 8 7 4 3 3 4 6 7 8 8 8 3 4 6 4 1 2 1 1 1 1 1 1 1 2 2 2 2 3 1 1 3 3 1 1 4 3 2 1 2 2 0 2 1 2 2 2 2 1 1 1 3 1 2 2 2 2 2 3 2 2 3 1 4 2 2 3 1 2 3 2 3 4 5 7 7 6 7 6 6 7 7 6 4 4 5 5
7 7 7 7 7 6 7 7 7 7 6 4 3 4 4 1 2 2 1 3 1 2 2 2 2 3 3 2 1 2 1 0 2 3 2 2 3 1 2 2 1 3 3 2 1 2 1 2 1 1 1 1 2 2 1 1 0 1 3 3 2 3 3 2 3 2 2 3 3 3 2 3 1 1 4 7 6 4 3 3 3 3 4 3 3 3 4 2
5 6 6 8 8 7 6 6 6 6 4 3 5 4 2 3 3 2 3 4 2 1 1 1 3 4 4 3 2 1 1 1 1 3 3 2 1 2 1 2 1 2 3 2 1 1 1 3 2 1 1 3 1 2 1 2 0 2 2 3 2 2 4 2 2 4 2 2 3 2 3 4 1 3 5 3 2 2 3 3 1 0 2 2 2 2 2 1
4 5 6 7 6 5 5 4 4 3 2 5 6 2 3 3 1 3 3 2 3 3 2 2 3 4 2 4 3 2 1 1 1 2 1 1 2 2 1 2 2 1 2 3 1 1 0 2 2 3 2 2 2 2 1 0 1 0 1 0 1 3 5 4 1 0 3 1 3 1 2 5 3 2 5 5 1 2 3 3 1 1 2 4 3 1 2 1
3 4 5 7 7 5 4 3 2 2 3 6 4 2 4 2 1 2 1 1 2 4 5 2 0 1 2 2 2 3 2 1 2 1 1 1 1 3 1 1 1 1 2 2 1 2 2 2 2 1 0 1 1 2 1 1 2 1 1 2 2 2 4 3 1 3 4 1 4 2 2 5 2 1 4 2 2 5 5 3 2 1 1 3 2 3 3 3
2 3 3 8 9 4 3 4 3 3 5 6 1 2 2 1 0 1 1 0 1 3 5 3 1 1 2 2 2 2 0 1 2 1 1 1 1 3 2 1 1 1 2 1 1 1 1 1 4 1 2 2 2 2 1 2 1 1 1 1 1 2 1 2 2 1 2 1 4 4 4 3 3 3 3 4 7 8 6 4 2 3 3 3 4 5 5 5
1 1 2 8 10 5 3 2 2 4 6 3 2 2 1 1 1 1 1 1 1 3 3 3 1 1 2 4 2 1 1 2 1 1 1 1 0 1 2 1 1 1 1 2 1 1 1 0 3 2 2 1 3 1 1 2 1 2 2 2 2 2 3 1 1 2 1 1 3 4 4 3 5 5 5 8 9 9 7 5 5 6 6 6 5 5 6 6
1 2 1 8 9 5 3 2 2 5 5 2 4 2 0 1 2 2 2 2 1 1 2 3 2 2 2 2 2 2 1 2 3 2 1 1 1 1 1 1 1 1 0 2 1 1 2 1 3 3 2 1 1 1 3 4 2 1 1 1 1 0 2 1 1 1 3 2 2 1 3 5 6 4 6 7 7 8 8 7 7 7 6 6 6 6 6 6
3 2 2 9 9 3 3 4 3 4 4 1 1 1 0 1 1 2 3 2 0 0 1 3 4 3 3 2 2 3 2 1 3 2 1 2 1 1 0 1 2 1 1 2 1 0 1 2 2 2 2 2 3 3 3 4 3 3 3 2 3 2 2 2 2 2 2 2 3 3 3 7 6 3 5 5 5 7 9 8 8 7 7 6 6 6 6 6
4 2 2 8 8 3 4 5 2 2 4 1 1 1 0 1 1 1 2 1 1 0 1 2 3 2 3 2 1 3 3 2 2 2 2 3 2 2 2 2 2 2 2 1 1 2 1 3 1 3 3 3 3 2 2 3 2 3 2 1 2 3 4 5 2 3 1 1 1 3 1 7 6 3 5 5 4 6 7 7 7 6 6 6 6 6 6 6
3 2 2 7 8 4 5 3 2 3 2 1 1 1 1 1 1 1 1 1 0 0 1 1 1 1 2 2 2 3 3 3 4 3 3 3 2 2 1 0 1 2 3 1 1 1 1 3 1 3 3 3 4 2 2 1 2 1 2 2 2 2 2 5 4 3 2 2 2 2 2 6 6 4 4 4 3 2 4 5 6 5 5 5 6 7 6 6
2 2 1 6 7 2 3 2 1 0 1 2 2 1 1 0 1 1 1 2 1 2 2 1 1 0 1 1 3 3 2 2 3 2 1 3 1 1 1 2 1 2 2 1 1 1 1 1 2 2 4 6 6 5 3 2 1 2 3 2 2 3 4 3 1 3 0 5 6 5 4 7 5 5 4 2 3 2 2 3 4 5 5 5 5 5 5 5
2 0 2 5 6 5 2 3 5 4 2 1 1 1 1 0 1 2 2 2 1 2 2 1 1 2 2 2 3 1 1 1 1 0 1 2 1 2 2 3 1 2 2 2 1 1 1 2 3 3 1 2 2 3 3 2 2 2 2 2 3 4 6 3 2 3 2 4 5 6 6 6 6 5 3 2 2 3 6 5 3 5 5 6 5 5 5 5
2 1 2 4 6 6 2 1 5 5 4 4 1 2 2 1 2 1 1 1 1 1 1 1 1 3 2 2 2 1 1 2 1 1 1 2 2 1 2 3 1 2 2 1 1 2 2 1 2 5 6 6 6 6 4 3 2 2 3 3 4 5 5 5 4 3 5 3 3 7 6 4 11 7 4 5 5 5 6 6 5 6 6 6 6 5 5 4
2 1 1 0 2 3 3 3 4 4 3 4 3 2 3 2 1 1 0 1 0 1 1 1 1 3 2 3 3 1 1 2 2 0 2 2 1 2 2 1 1 2 2 0 1 3 4 2 3 6 6 7 7 6 3 2 3 6 5 5 6 6 5 6 6 6 5 5 5 8 6 5 14 9 6 6 6 5 7 7 6 6 6 5 6 5 5 2
1 2 2 2 1 1 1 1 3 4 2 2 2 1 3 2 1 2 2 1 1 0 1 0 2 5 6 6 4 3 2 1 2 2 2 2 1 1 2 1 1 2 2 1 1 3 4 3 4 4 5 7 5 5 3 3 4 5 6 8 8 7 9 11 12 8 8 7 9 5 7 9 14 10 5 6 6 6 9 8 6 6 5 5 5 5 5 2
1 2 1 1 1 4 2 1 3 5 3 2 2 1 4 5 5 4 2 2 2 3 2 3 6 6 6 5 4 4 4 2 2 4 3 3 2 2 1 2 2 1 2 1 1 1 4 3 3 3 4 7 6 5 4 5 4 5 9 11 8 9 13 14 12 9 9 11 14 7 4 10 14 12 11 8 6 7 8 6 5 6 5 4 5 6 6 3
1 2 2 2 3 2 1 1 3 4 2 1 0 2 4 6 6 4 2 4 2 2 2 4 6 4 5 5 5 4 7 5 2 3 5 5 2 3 3 3 3 2 2 1 1 1 2 3 1 3 3 8 5 2 2 4 5 6 11 11 8 10 12 11 10 7 6 12 15 9 8 15 12 7 8 9 4 3 5 6 6 6 5 3 5 7 5 3
1 1 3 4 3 0 1 2 3 4 1 1 3 3 3 6 7 5 2 3 4 5 6 7 5 2 3 3 5 6 7 6 3 2 5 6 3 3 2 2 5 5 2 2 1 0 2 1 1 4 1 6 4 4 3 1 1 6 13 14 13 11 9 8 8 8 10 12 9 3 6 12 9 3 3 6 4 2 5 7 6 5 4 3 6 6 4 5
2 2 2 5 2 1 1 2 2 3 2 3 3 3 2 4 6 5 3 1 1 4 6 7 6 4 4 3 7 7 5 6 4 2 3 4 3 3 2 2 6 6 5 5 2 1 3 3 1 3 1 6 5 3 3 5 4 7 11 12 14 13 10 7 6 9 13 11 7 6 9 9 3 3 3 5 5 5 6 5 5 6 5 4 4 4 6 8
Wind_Direction
229 253 261 270 12 26 36 38 11 2 12 13 7 10 15 9 358 13 6 352 17 32 22 5 346 335 329 322 325 339 91 63 28 36 46 11 351 350 338 328 340 359 9 5 7 27 52 54 30 13 23 43 25 9 16 13 47 51 81 97 142 179 188 182 180 190 160 181 203 206 183 159 218 252 251 346 322 276 271 271 259 269 257 236 253 270 190 182
228 240 252 268 330 354 17 29 6 357 5 5 358 4 11 8 1 14 16 22 44 29 21 7 349 331 322 316 308 318 160 152 34 37 27 358 354 352 335 330 344 10 21 17 13 25 53 27 1 12 35 52 359 12 26 360 52 81 106 100 212 199 190 189 185 191 168 184 186 190 188 169 202 207 136 253 275 306 272 274 273 272 274 264 263 229 185 180
236 236 224 279 320 336 355 10 360 352 354 352 352 4 9 3 3 15 29 45 42 32 17 360 356 345 328 317 291 177 168 130 31 15 359 356 357 356 345 332 345 24 31 23 3 17 53 348 341 21 56 54 354 23 43 15 46 102 107 108 236 207 176 220 207 213 228 185 159 181 195 185 218 183 131 214 265 293 242 250 247 244 261 264 260 213 187 185
237 216 193 293 319 325 341 357 353 344 341 345 353 3 3 356 5 12 21 40 33 37 29 10 9 13 17 43 118 154 155 78 16 326 346 357 360 4 358 316 351 24 14 6 354 7 18 359 27 67 74 48 338 30 48 355 40 80 99 165 230 181 119 213 221 270 251 160 151 170 154 195 236 190 197 166 258 286 244 230 212 220 239 246 263 216 192 192
233 212 235 299 316 317 328 345 342 332 333 345 354 358 356 350 4 7 13 31 29 42 43 39 39 42 58 73 103 152 122 55 330 332 353 1 1 2 20 16 354 334 343 4 10 32 35 55 81 60 67 59 350 33 29 322 70 68 38 201 213 149 111 232 248 328 130 116 117 140 154 219 238 232 215 165 210 250 235 225 205 214 225 219 242 204 190 197
251 269 280 299 322 329 305 324 329 325 332 346 351 351 344 343 358 4 10 18 28 45 53 64 63 57 60 59 67 118 113 102 321 349 358 2 2 359 55 91 94 319 356 42 34 53 57 56 74 65 65 57 25 71 341 323 50 90 288 332 4 154 143 208 314 355 98 107 123 160 189 282 25 291 234 187 224 233 233 222 188 208 213 195 181 161 176 200
270 285 289 300 328 329 280 305 318 323 334 343 346 342 335 339 355 358 4 8 14 11 34 101 80 52 41 40 55 59 90 93 337 353 358 3 5 2 75 49 26 318 189 62 33 69 86 60 85 119 81 69 112 113 20 348 40 88 165 331 24 124 148 168 104 42 93 120 174 175 92 281 210 275 312 233 240 240 247 237 209 236 210 178 155 156 184 206
277 286 292 305 325 304 285 305 317 325 333 338 338 333 330 342 352 356 8 5 350 328 301 235 242 280 356 360 62 48 49 323 335 351 357 7 16 20 40 45 36 312 111 64 37 126 112 81 125 140 83 94 138 107 32 22 38 78 149 205 43 60 169 225 58 44 77 124 181 82 306 246 218 226 312 263 250 244 240 237 244 264 178 169 174 186 199 213
274 282 290 299 305 302 304 314 320 324 330 331 329 327 331 345 355 12 20 0 343 326 299 267 243 235 316 3 84 61 348 310 336 352 359 12 27 36 56 74 58 138 107 67 56 114 114 120 186 167 131 152 109 92 335 25 31 128 139 146 108 62 309 14 25 332 281 240 91 32 286 272 248 266 281 260 257 255 233 228 233 188 173 198 206 211 211 220
270 275 282 290 295 303 305 311 318 323 326 322 323 325 333 354 12 20 7 353 346 337 299 258 228 234 272 343 74 77 308 331 351 358 8 18 32 47 61 64 89 120 103 71 61 78 95 143 178 135 124 118 87 54 338 88 124 114 112 108 99 102 298 64 269 283 286 266 195 207 273 284 305 324 268 261 278 274 200 221 220 171 196 218 219 233 226 226
270 272 276 283 287 293 296 307 316 320 319 319 324 326 339 9 17 11 9 31 50 61 72 106 125 123 104 81 92 109 322 356 8 12 15 22 38 46 50 53 74 96 89 72 61 59 82 130 135 101 98 114 90 39 22 100 105 109 111 83 39 7 308 249 241 278 305 265 193 184 262 290 344 298 240 256 297 60 153 204 209 178 210 226 229 247 240 237
272 273 272 269 268 278 287 304 315 319 318 322 323 311 355 17 16 25 53 68 67 67 66 78 96 95 75 72 88 154 325 4 13 18 18 25 45 47 46 50 61 70 78 80 60 42 77 142 112 79 24 130 106 49 92 109 97 124 110 88 2 0 347 270 261 267 341 247 187 164 303 299 220 234 244 259 302 60 138 189 206 199 225 239 243 254 249 246
271 269 264 259 256 252 267 299 314 339 341 330 318 312 6 23 24 40 58 46 40 44 36 42 52 230 68 64 37 339 347 10 14 22 29 33 56 55 48 49 55 61 69 79 63 45 86 143 111 106 111 107 112 128 126 83 85 134 42 102 25 2 2 309 307 308 334 259 153 105 318 285 245 244 251 263 291 105 155 229 236 237 253 256 254 257 256 253
270 264 258 255 241 219 249 264 130 113 82 24 350 340 3 32 29 10 349 360 41 46 32 34 16 24 82 132 248 7 4 14 20 23 29 32 61 65 54 53 54 56 61 71 64 57 89 122 100 98 87 89 119 105 64 27 54 69 16 89 32 6 290 309 329 3 342 312 64 81 254 268 268 265 268 276 161 151 213 248 252 261 265 263 260 257 261 263
265 253 242 226 208 203 190 142 122 93 58 30 13 6 12 47 21 356 349 257 268 352 349 10 324 142 78 62 251 359 4 24 22 16 13 15 39 44 30 43 49 47 50 58 64 60 76 99 81 75 57 38 62 69 39 2 12 34 86 309 349 61 271 304 303 91 142 287 18 85 228 271 268 273 296 330 132 163 221 252 263 269 265 267 265 258 259 267
225 210 199 184 181 170 149 137 112 71 47 34 36 52 57 30 283 304 269 225 264 305 307 322 258 156 95 36 301 358 6 17 7 8 6 6 27 20 3 19 32 31 43 49 61 61 55 67 64 74 97 39 46 72 49 20 355 354 76 232 292 300 295 314 319 86 99 295 331 166 233 279 279 289 319 1 116 168 235 259 267 265 266 267 263 267 263 267
143 161 165 163 161 150 148 145 122 64 46 44 58 76 73 52 16 273 201 160 88 9 23 33 241 120 83 359 357 351 336 345 353 4 10 8 18 10 6 23 14 9 34 49 46 41 32 46 57 72 63 43 42 82 64 4 303 317 30 150 259 247 260 304 307 344 30 344 270 258 234 252 270 291 306 315 204 193 241 255 259 262 271 273 269 275 269 265
133 151 158 157 152 147 161 179 189 131 57 51 63 87 75 41 36 60 152 174 110 6 34 22 32 84 37 356 355 315 309 327 352 5 10 11 7 6 19 39 4 359 26 36 30 30 21 25 61 55 29 23 25 63 116 221 208 183 137 123 307 310 249 261 264 296 14 341 251 253 257 262 274 280 283 286 243 210 239 248 256 262 269 279 284 280 273 269
140 154 161 161 160 163 189 207 216 214 86 28 28 78 307 346 28 56 62 78 65 4 214 325 23 128 243 331 309 312 314 330 1 10 9 6 360 11 38 41 22 35 54 28 7 22 34 26 46 62 21 355 1 80 149 198 157 146 159 151 206 286 270 255 258 275 2 321 266 228 247 273 287 287 284 282 242 211 242 259 263 264 271 277 283 280 275 270
158 161 167 171 179 191 203 216 233 240 265 316 324 321 311 331 25 24 35 49 80 144 108 286 25 122 23 334 327 332 331 355 12 12 10 2 1 38 41 23 24 44 59 11 337 4 73 64 53 155 195 235 242 206 171 168 132 127 121 133 208 231 274 265 262 303 337 328 273 238 265 281 286 289 293 290 238 210 243 257 260 258 261 265 266 272 266 255
164 172 182 188 199 218 235 239 251 258 268 283 290 349 181 172 76 293 27 37 335 158 81 209 196 90 61 316 341 347 6 60 2 9 14 3 8 47 347 19 47 36 9 294 300 355 63 78 130 215 204 213 235 231 221 162 112 106 126 163 257 227 256 262 222 313 356 21 282 331 329 292 287 292 301 307 189 210 231 229 247 249 245 257 253 256 260 261
166 200 201 215 227 244 258 256 263 266 265 264 236 164 200 214 185 164 140 86 321 14 53 14 26 16 320 324 352 356 48 48 1 358 8 4 20 51 335 43 75 72 344 348 10 20 42 89 221 232 211 196 15 30 106 133 92 80 121 156 260 252 275 296 336 332 360 21 279 346 343 297 295 295 303 316 192 236 241 215 222 222 229 252 247 246 262 272
323 244 238 256 249 251 264 262 265 255 235 224 204 194 226 183 161 156 113 94 83 356 25 22 30 343 338 18 4 15 64 58 352 335 353 3 28 64 72 64 74 67 1 16 111 91 59 241 233 222 72 69 15 24 89 109 68 73 113 146 240 293 344 301 316 333 331 254 258 321 324 292 306 316 315 317 230 276 302 241 227 210 214 236 243 242 237 239
332 290 272 268 232 241 259 239 226 207 200 209 205 200 183 159 154 155 96 82 96 10 18 346 146 74 360 11 358 24 85 92 291 319 346 14 84 41 83 112 85 53 358 27 112 106 83 286 262 67 53 82 45 2 74 116 4 344 153 146 214 301 313 250 293 331 327 293 264 332 344 307 326 345 312 313 324 317 343 323 261 258 259 266 290 280 239 225
343 324 298 222 193 201 175 175 185 180 177 176 167 166 164 164 176 177 110 66 29 318 324 293 66 53 359 7 356 7 118 45 208 281 339 23 90 39 81 123 87 85 283 55 87 90 71 309 7 61 41 65 107 349 59 144 211 304 216 168 169 196 232 289 330 349 8 35 350 19 39 302 317 341 287 308 351 324 330 331 272 280 308 309 299 289 278 262
348 334 330 171 187 171 133 153 173 163 150 138 148 154 162 170 178 162 114 61 25 299 330 329 356 13 339 354 358 61 90 356 277 279 353 22 24 104 89 11 57 143 202 111 87 102 69 6 45 83 75 60 65 336 234 146 131 292 219 166 138 125 121 4 7 24 49 344 313 40 92 250 320 332 280 306 338 315 321 323 291 292 304 295 272 266 276 271
351 335 314 181 180 175 173 170 165 160 154 166 159 158 174 168 112 103 76 48 11 286 360 307 316 28 333 317 354 108 107 311 313 356 17 28 345 69 88 14 63 99 184 130 79 80 73 29 36 58 72 64 50 320 210 139 128 253 189 127 109 91 95 72 53 51 293 277 321 12 84 141 306 285 275 306 336 328 335 324 308 302 286 282 270 260 257 252
3 340 289 212 190 192 200 163 167 178 212 176 167 165 180 168 85 43 85 79 314 344 62 294 326 16 313 338 40 87 171 319 73 323 344 49 356 39 79 120 136 112 19 120 177 275 72 40 27 62 60 60 223 236 187 144 136 260 190 124 107 110 131 120 76 25 307 333 322 330 18 90 266 277 305 351 49 345 340 342 335 327 304 286 271 263 257 252
22 5 243 181 187 192 200 187 183 198 198 172 168 171 183 174 14 44 82 110 276 21 91 327 18 318 336 14 17 26 34 19 83 285 332 51 20 42 89 141 131 113 32 66 145 182 110 212 182 124 85 267 239 244 195 150 289 262 147 90 57 73 87 80 71 43 7 49 240 292 352 56 271 287 323 24 83 242 273 316 326 312 304 288 272 272 267 264
30 43 158 172 166 167 184 204 197 192 181 172 171 172 176 91 53 64 51 204 152 318 246 349 286 319 19 35 358 8 41 1 337 337 353 40 18 33 94 139 109 102 37 39 85 126 327 273 168 115 145 209 184 218 194 155 242 254 80 54 40 39 54 64 46 67 59 10 251 275 335 48 300 287 245 185 180 187 190 244 280 286 306 303 290 288 277 278
37 49 95 199 182 170 180 180 174 178 171 167 168 156 108 37 62 87 140 240 126 308 337 28 320 13 41 67 18 5 25 345 336 8 14 10 11 17 55 77 60 62 26 21 42 346 346 18 225 243 193 146 106 87 14 26 24 68 64 54 50 354 21 38 355 34 86 266 263 282 315 61 204 263 237 236 250 196 168 180 199 214 240 264 298 308 304 306
46 50 52 156 187 195 193 153 154 158 160 161 156 96 80 36 8 100 291 331 14 288 185 353 315 32 41 54 39 346 343 352 5 52 63 33 37 18 34 157 180 37 359 306 35 343 323 283 289 315 219 130 107 75 346 9 37 63 63 62 64 344 2 7 313 358 165 247 267 310 327 295 226 244 238 245 252 218 196 187 176 186 208 228 262 303 318 321
53 53 55 72 121 135 129 140 150 151 159 161 127 54 76 80 250 216 266 359 13 289 85 61 357 57 56 43 16 323 325 6 9 49 104 106 68 27 324 203 153 92 203 196 111 10 320 279 312 338 269 125 118 154 320 339 30 64 107 97 86 64 50 307 281 311 278 262 283 321 322 283 268 266 231 230 240 227 218 214 193 183 187 203 230 281 305 312
59 61 62 72 89 108 123 135 149 153 158 145 82 57 79 96 216 193 248 245 248 342 45 76 32 44 52 62 300 287 98 358 337 37 26 30 59 43 295 320 16 97 111 125 158 151 153 266 251 181 220 101 131 198 178 169 295 253 180 137 114 136 136 226 243 215 260 278 300 317 293 196 191 304 236 232 253 267 259 255 240 211 205 214 248 301 310 318
70 75 68 73 86 100 118 135 152 158 160 103 62 73 139 231 228 177 227 232 213 7 12 45 69 58 13 336 313 306 146 245 337 50 31 26 139 175 215 270 292 102 119 133 230 143 152 242 247 299 221 123 158 245 124 108 253 234 175 97 59 148 134 134 188 185 195 315 306 286 227 219 203 296 295 305 292 304 337 340 10 302 311 25 47 337 319 314
96 82 63 57 64 85 106 130 155 158 123 81 66 75 194 222 208 174 202 176 142 149 131 41 62 81 325 307 336 355 10 275 13 46 16 16 180 188 206 233 232 98 135 151 196 158 108 264 288 348 355 125 171 225 98 115 225 203 96 100 227 152 119 110 189 291 71 60 283 270 259 298 342 292 312 7 31 275 318 331 345 294 327 57 75 283 260 234
116 88 63 34 29 58 89 88 139 149 71 82 91 210 215 217 163 179 217 48 136 130 113 112 80 139 212 258 298 316 340 306 346 36 243 292 194 179 183 247 221 201 186 149 180 194 150 265 282 53 120 246 190 138 78 238 184 102 110 217 223 128 100 103 106 360 38 40 281 326 290 294 348 259 308 19 192 243 263 270 307 338 65 93 134 225 220 237
152 106 77 21 15 36 70 68 122 129 70 75 91 255 201 183 102 173 205 74 126 95 100 153 190 181 188 177 248 278 75 259 317 23 192 255 216 159 144 222 222 231 230 152 67 291 132 285 294 213 174 304 9 79 340 289 146 125 196 205 91 137 125 47 90 48 23 318 292 314 306 264 204 222 255 210 201 215 232 231 150 137 156 168 204 225 239 259
181 100 54 6 9 27 55 93 127 78 67 90 220 247 186 207 272 248 208 207 136 110 131 192 158 59 167 164 187 218 151 200 209 111 174 202 251 146 124 173 197 201 243 119 116 289 90 84 288 263 188 333 15 69 244 253 48 28 360 345 357 155 165 116 91 154 164 239 278 313 330 282 230 215 194 208 209 191 191 189 168 181 200 205 209 221 238 246
38 90 334 354 12 34 55 100 77 56 72 161 208 204 354 265 264 273 245 238 217 132 173 189 147 115 189 201 208 183 133 178 170 156 225 208 201 210 98 86 148 164 60 64 91 344 49 95 259 294 315 292 274 221 198 183 167 87 49 325 303 140 151 160 354 91 130 154 190 263 314 273 250 211 181 211 220 191 181 175 180 204 215 219 224 219 223 232
53 80 305 356 18 25 48 62 43 57 101 161 210 181 257 181 196 307 294 272 247 236 177 154 147 157 173 188 233 191 148 148 169 173 230 210 184 243 268 152 165 157 85 69 80 243 78 142 206 292 306 233 245 251 191 170 172 163 165 194 182 147 124 119 320 321 98 137 172 156 271 271 259 213 197 225 225 201 191 172 177 208 217 225 236 223 218 226
70 94 298 3 14 356 49 62 12 57 111 151 248 207 336 91 114 324 317 344 53 357 33 103 129 142 154 163 196 172 147 155 188 191 213 209 194 198 190 168 179 151 119 145 249 236 150 102 122 259 245 228 269 281 155 155 152 146 180 216 145 129 122 123 214 261 124 99 147 117 254 268 265 235 223 252 246 200 190 174 173 203 223 229 242 245 241 237
95 171 272 358 0 15 67 66 323 13 63 264 290 326 355 81 133 289 296 300 185 114 34 68 139 120 180 182 138 159 180 188 183 186 215 217 207 212 204 123 184 145 117 157 250 238 100 84 59 289 297 314 328 358 97 98 76 142 243 222 149 163 141 140 173 184 146 180 157 92 278 265 277 282 258 273 282 176 185 189 180 207 254 257 253 258 252 247
135 193 275 352 355 34 100 161 212 358 293 309 17 3 308 253 166 170 236 242 212 156 142 171 207 148 181 128 102 157 206 204 184 194 203 190 193 326 355 358 304 162 147 191 166 149 277 140 94 14 345 342 347 354 345 333 240 229 240 209 183 146 111 121 139 82 279 223 158 136 246 253 274 310 324 355 39 51 265 240 197 215 254 263 262 265 253 252
84 33 297 349 21 65 125 179 150 144 189 91 60 237 236 306 217 196 211 226 214 171 157 189 186 104 103 90 76 88 49 36 198 250 55 182 241 336 351 341 322 186 217 247 189 155 230 191 128 119 158 266 277 275 270 252 236 244 216 195 204 165 139 152 115 91 243 236 154 165 229 260 280 299 319 316 2 329 294 288 261 240 248 259 263 262 252 248
95 51 307 338 19 53 65 96 108 118 155 149 154 220 156 154 279 269 165 205 225 156 101 325 143 94 85 114 97 72 309 353 32 81 193 218 250 289 298 336 345 204 243 260 191 106 102 212 197 164 182 200 199 216 220 161 145 220 221 208 200 186 152 123 113 166 199 176 193 215 206 281 285 263 198 243 278 291 283 290 292 275 269 269 261 255 250 242
115 153 167 138 357 30 38 21 70 101 170 178 175 192 166 177 293 343 189 240 254 126 51 6 155 156 169 163 142 170 238 347 13 193 207 204 223 283 292 333 359 291 312 268 189 103 89 282 232 183 216 225 197 208 214 146 201 222 224 223 204 184 154 152 186 205 156 131 252 243 182 229 270 253 182 216 260 286 281 280 280 277 272 265 263 264 254 234
101 166 155 141 201 167 85 41 105 96 88 147 140 148 156 163 194 195 203 314 355 254 163 295 243 211 192 173 156 162 166 8 291 227 188 167 177 4 346 283 243 314 7 15 305 107 123 243 229 184 254 264 226 227 218 188 232 235 227 229 211 181 179 197 214 201 157 187 248 237 162 208 256 268 243 218 217 249 267 266 266 273 271 258 257 251 231 196
93 118 106 25 132 180 177 136 117 104 86 89 90 152 165 180 212 219 179 89 345 292 196 221 256 233 203 185 139 147 178 180 238 234 191 159 175 146 116 226 231 2 49 113 304 120 153 229 220 164 286 288 264 248 213 200 244 266 251 239 213 199 205 212 224 210 191 232 254 250 235 254 260 266 271 261 228 237 266 281 279 271 259 239 227 221 215 191
144 155 171 59 67 151 172 54 98 104 71 53 155 208 174 176 201 225 170 144 177 258 192 216 245 222 185 176 146 179 210 177 143 242 185 147 170 203 194 200 173 80 39 163 243 284 209 246 193 106 330 293 290 348 118 184 214 249 265 256 222 219 226 226 232 221 206 245 258 260 274 277 268 242 255 272 263 238 267 277 272 264 255 219 197 204 206 147
119 130 138 115 101 227 13 42 91 108 96 266 200 206 202 199 201 191 176 176 171 177 185 199 210 146 102 158 195 234 231 179 151 259 189 156 166 204 217 198 147 135 166 187 165 169 180 235 35 74 12 282 308 28 28 11 229 257 270 261 233 219 220 218 216 201 198 220 236 228 245 260 262 195 217 272 289 253 247 255 268 280 272 214 192 193 168 116
107 37 63 105 108 298 107 76 67 109 216 235 189 186 216 232 218 183 169 248 142 168 191 185 167 120 90 183 225 241 222 176 177 221 173 139 93 84 76 92 117 132 169 170 144 161 153 150 141 115 180 270 301 358 15 19 357 279 261 245 225 212 212 228 235 213 205 198 188 200 221 235 236 137 178 253 262 249 251 256 271 282 268 228 194 146 116 106